Hourly Data Report for February 19, 2017

All times are specified in Local Standard Time (LST). Add 1 hour to adjust for Daylight Saving Time where and when it is observed.

TORONTO CITY
ONTARIO

43°40'00.000" N
79°24'00.000" W
112.50 m
6158355
71508
XTO

Download Data

Hourly Data (February 2017)
Hourly Data Report for February 19, 2017
TIME Temp Definition
°C
Dew Point Definition
°C
Rel Hum Definition
%
Wind Dir Definition
10's deg

Wind Spd Definition
km/h
Visibility Definition
km
Stn Press Definition
kPa
Hmdx Definition


Wind Chill Definition


Weather Definition


00:00 7.9 2.3 68 LegendMM LegendMM   99.17     LegendNANA
01:00 7.5 2.1 69 LegendMM LegendMM   99.19     LegendNANA
02:00 6.7 1.9 71 LegendMM LegendMM   99.24     LegendNANA
03:00 6.5 1.5 70 LegendMM LegendMM   99.34     LegendNANA
04:00 6.0 1.1 71 LegendMM LegendMM   99.39     LegendNANA
05:00 5.4 1.2 74 LegendMM LegendMM   99.45     LegendNANA
06:00 5.6 0.9 71 LegendMM LegendMM   99.54     LegendNANA
07:00 5.4 0.8 73 LegendMM LegendMM   99.63     LegendNANA
08:00 5.3 0.8 73 LegendMM LegendMM   99.70     LegendNANA
09:00 6.2 0.8 68 LegendMM LegendMM   99.76     LegendNANA
10:00 9.7 1.2 55 LegendMM LegendMM   99.79     LegendNANA
11:00 11.2 1.1 50 LegendMM LegendMM   99.82     LegendNANA
12:00 12.4 0.9 45 LegendMM LegendMM   99.84     LegendNANA
13:00 12.7 0.4 43 LegendMM LegendMM   99.83     LegendNANA
14:00 13.0 0.4 42 LegendMM LegendMM   99.85     LegendNANA
15:00 12.1 -0.5 42 LegendMM LegendMM   99.89     LegendNANA
16:00 10.9 0.7 49 LegendMM LegendMM   100.03     LegendNANA
17:00 9.2 0.3 54 LegendMM LegendMM   100.16     LegendNANA
18:00 7.5 -0.6 56 LegendMM LegendMM   100.29     LegendNANA
19:00 6.5 -0.8 60 LegendMM LegendMM   100.40     LegendNANA
20:00 5.6 -1.3 62 LegendMM LegendMM   100.48     LegendNANA
21:00 5.4 -1.3 62 LegendMM LegendMM   100.55     LegendNANA
22:00 4.6 -1.2 66 LegendMM LegendMM   100.64     LegendNANA
23:00 4.3 -1.0 68 LegendMM LegendMM   100.66     LegendNANA

Notes on Data Quality.

Legend

  • E = Estimated
  • M = Missing
  • NA = Not Available
Date modified: